| time (UTC) | temp F | wind direction | speed MPH | gust MPH | rain 1hr in | rain 24hr in | rain mn in | humidity % | barometer mb |
| 20260904044053 | 81 | 123 | 0.0 | 4.0 | 0.00 | 0.00 | 0.00 | 70 | 1013.3 |
| 20260904043554 | 81 | 0 | 0.0 | 4.0 | 0.00 | 0.00 | 0.00 | 70 | 1013.4 |
| 20260904043059 | 82 | 0 | 0.0 | 7.0 | 0.00 | 0.00 | 0.00 | 70 | 1013.4 |
| 20260904042554 | 82 | 222 | 0.0 | 7.0 | 0.00 | 0.00 | 0.00 | 69 | 1013.3 |
| 20260904042055 | 82 | 0 | 0.0 | 6.0 | 0.00 | 0.00 | 0.00 | 69 | 1013.2 |
| 20260904041604 | 82 | 164 | 0.0 | 5.0 | 0.00 | 0.00 | 0.00 | 69 | 1013.2 |
| 20260904041055 | 82 | 154 | 1.0 | 5.0 | 0.00 | 0.00 | 0.00 | 69 | 1013.3 |
| 20260904040555 | 82 | 102 | 1.0 | 5.0 | 0.00 | 0.00 | 0.00 | 69 | 1013.3 |
| 20260904040105 | 82 | 0 | 0.0 | 4.0 | 0.00 | 0.00 | 0.00 | 69 | 1013.3 |
| 20260904035617 | 82 | 169 | 1.0 | 6.0 | 0.00 | 0.00 | 0.00 | 69 | 1013.4 |
| 20260904035057 | 82 | 0 | 1.0 | 6.0 | 0.00 | 0.00 | 0.00 | 69 | 1013.4 |
| 20260904034604 | 82 | 139 | 0.0 | 4.0 | 0.00 | 0.00 | 0.00 | 69 | 1013.4 |
| 20260904034056 | 83 | 0 | 0.0 | 4.0 | 0.00 | 0.00 | 0.00 | 69 | 1013.4 |
| 20260904033557 | 83 | 132 | 0.0 | 4.0 | 0.00 | 0.00 | 0.00 | 69 | 1013.4 |
| 20260904033105 | 83 | 161 | 1.0 | 6.0 | 0.00 | 0.00 | 0.00 | 69 | 1013.4 |
| 20260904032555 | 83 | 146 | 0.0 | 6.0 | 0.00 | 0.00 | 0.00 | 69 | 1013.4 |
| 20260904032055 | 83 | 221 | 1.0 | 6.0 | 0.00 | 0.00 | 0.00 | 69 | 1013.3 |
| 20260904031604 | 83 | 0 | 1.0 | 5.0 | 0.00 | 0.00 | 0.00 | 69 | 1013.3 |
| 20260904031055 | 83 | 246 | 1.0 | 7.0 | 0.00 | 0.00 | 0.00 | 69 | 1013.4 |
| 20260904030555 | 83 | 0 | 1.0 | 7.0 | 0.00 | 0.00 | 0.00 | 69 | 1013.4 |
| 20260904025556 | 84 | 134 | 1.0 | 7.0 | 0.00 | 0.00 | 0.00 | 68 | 1013.2 |
| 20260904025057 | 84 | 214 | 2.0 | 7.0 | 0.00 | 0.00 | 0.00 | 68 | 1013.2 |
| 20260904024614 | 84 | 171 | 2.0 | 7.0 | 0.00 | 0.00 | 0.00 | 68 | 1013.2 |
| 20260904024055 | 85 | 139 | 2.0 | 6.0 | 0.00 | 0.00 | 0.00 | 68 | 1013.0 |
| 20260904023556 | 85 | 157 | 1.0 | 6.0 | 0.00 | 0.00 | 0.00 | 67 | 1012.9 |
| 20260904023112 | 85 | 240 | 1.0 | 5.0 | 0.00 | 0.00 | 0.00 | 66 | 1012.8 |
| 20260904022556 | 85 | 183 | 2.0 | 7.0 | 0.00 | 0.00 | 0.00 | 65 | 1012.7 |
| 20260904022055 | 85 | 199 | 2.0 | 8.0 | 0.00 | 0.00 | 0.00 | 64 | 1012.7 |
| 20260904021603 | 86 | 0 | 1.0 | 8.0 | 0.00 | 0.00 | 0.00 | 64 | 1012.4 |
| 20260904021056 | 86 | 105 | 1.0 | 8.0 | 0.00 | 0.00 | 0.00 | 63 | 1012.3 |
| 20260904020556 | 86 | 133 | 0.0 | 8.0 | 0.00 | 0.00 | 0.00 | 63 | 1012.2 |
| 20260904020105 | 86 | 157 | 1.0 | 6.0 | 0.00 | 0.00 | 0.00 | 63 | 1012.2 |
| 20260904015556 | 86 | 138 | 1.0 | 7.0 | 0.00 | 0.00 | 0.00 | 63 | 1012.0 |
| 20260904015056 | 86 | 306 | 2.0 | 7.0 | 0.00 | 0.00 | 0.00 | 63 | 1011.9 |
| 20260904014608 | 86 | 0 | 1.0 | 9.0 | 0.00 | 0.00 | 0.00 | 62 | 1011.8 |
| 20260904014058 | 87 | 142 | 1.0 | 9.0 | 0.00 | 0.00 | 0.00 | 62 | 1011.8 |
| 20260904013559 | 87 | 122 | 1.0 | 7.0 | 0.00 | 0.00 | 0.00 | 62 | 1011.7 |
| 20260904013103 | 87 | 360 | 1.0 | 6.0 | 0.00 | 0.00 | 0.00 | 62 | 1011.7 |
| 20260904012556 | 87 | 150 | 0.0 | 7.0 | 0.00 | 0.00 | 0.00 | 62 | 1011.8 |
| 20260904012056 | 87 | 207 | 2.0 | 7.0 | 0.00 | 0.00 | 0.00 | 62 | 1011.8 |
| 20260904011614 | 87 | 130 | 2.0 | 5.0 | 0.00 | 0.00 | 0.00 | 62 | 1011.6 |
| 20260904011058 | 88 | 347 | 1.0 | 6.0 | 0.00 | 0.00 | 0.00 | 62 | 1011.6 |
| 20260904010559 | 88 | 124 | 1.0 | 7.0 | 0.00 | 0.00 | 0.00 | 62 | 1011.4 |
| 20260904010112 | 88 | 112 | 1.0 | 8.0 | 0.00 | 0.00 | 0.00 | 61 | 1011.5 |
| 20260904005556 | 88 | 77 | 2.0 | 8.0 | 0.00 | 0.00 | 0.00 | 61 | 1011.4 |
| 20260904005054 | 88 | 87 | 1.0 | 8.0 | 0.00 | 0.00 | 0.00 | 61 | 1011.2 |
| 20260904004600 | 89 | 215 | 1.0 | 8.0 | 0.00 | 0.00 | 0.00 | 61 | 1011.3 |
| 20260904004055 | 89 | 91 | 3.0 | 8.0 | 0.00 | 0.00 | 0.00 | 61 | 1011.3 |
| 20260904003555 | 89 | 99 | 2.0 | 7.0 | 0.00 | 0.00 | 0.00 | 61 | 1011.2 |
| 20260904003105 | 89 | 86 | 1.0 | 7.0 | 0.00 | 0.00 | 0.00 | 61 | 1011.3 |
| 20260904002555 | 89 | 0 | 2.0 | 7.0 | 0.00 | 0.00 | 0.00 | 60 | 1011.3 |
| 20260904002054 | 89 | 266 | 2.0 | 7.0 | 0.00 | 0.00 | 0.00 | 60 | 1011.3 |
| 20260904001600 | 90 | 298 | 1.0 | 6.0 | 0.00 | 0.00 | 0.00 | 60 | 1011.2 |
| 20260904001054 | 90 | 184 | 1.0 | 6.0 | 0.00 | 0.00 | 0.00 | 60 | 1011.2 |
| 20260904000554 | 90 | 90 | 2.0 | 7.0 | 0.00 | 0.00 | 0.00 | 60 | 1011.1 |
| 20260904000100 | 90 | 165 | 2.0 | 7.0 | 0.00 | 0.00 | 0.00 | 59 | 1011.0 |
| 20260903235555 | 90 | 153 | 1.0 | 9.0 | 0.00 | 0.00 | 0.00 | 59 | 1011.0 |
| 20260903235054 | 91 | 92 | 3.0 | 9.0 | 0.00 | 0.00 | 0.00 | 58 | 1011.0 |
| 20260903234600 | 91 | 189 | 2.0 | 8.0 | 0.00 | 0.00 | 0.00 | 58 | 1011.0 |
| 20260903234055 | 92 | 213 | 1.0 | 8.0 | 0.00 | 0.00 | 0.00 | 57 | 1011.0 |
| 20260903233553 | 92 | 76 | 2.0 | 9.0 | 0.00 | 0.00 | 0.00 | 57 | 1010.9 |
| 20260903233103 | 93 | 117 | 2.0 | 9.0 | 0.00 | 0.00 | 0.00 | 56 | 1010.7 |
| 20260903232554 | 93 | 105 | 3.0 | 10.0 | 0.00 | 0.00 | 0.00 | 55 | 1010.8 |
| 20260903232054 | 94 | 126 | 3.0 | 10.0 | 0.00 | 0.00 | 0.00 | 55 | 1010.8 |
| 20260903231601 | 94 | 88 | 1.0 | 7.0 | 0.00 | 0.00 | 0.00 | 54 | 1010.7 |
| 20260903231054 | 94 | 163 | 2.0 | 9.0 | 0.00 | 0.00 | 0.00 | 54 | 1010.6 |
| 20260903230554 | 94 | 105 | 2.0 | 9.0 | 0.00 | 0.00 | 0.00 | 54 | 1010.6 |
| 20260903230106 | 94 | 80 | 1.0 | 10.0 | 0.00 | 0.00 | 0.00 | 54 | 1010.5 |
| 20260903225554 | 95 | 100 | 2.0 | 10.0 | 0.00 | 0.00 | 0.00 | 54 | 1010.5 |
| 20260903225053 | 95 | 111 | 2.0 | 10.0 | 0.00 | 0.00 | 0.00 | 53 | 1010.7 |
| 20260903224603 | 95 | 233 | 2.0 | 10.0 | 0.00 | 0.00 | 0.00 | 53 | 1010.8 |
| 20260903224054 | 96 | 221 | 3.0 | 10.0 | 0.00 | 0.00 | 0.00 | 52 | 1010.7 |
| 20260903223555 | 97 | 92 | 3.0 | 9.0 | 0.00 | 0.00 | 0.00 | 52 | 1010.6 |
| 20260903223104 | 97 | 58 | 3.0 | 9.0 | 0.00 | 0.00 | 0.00 | 51 | 1010.6 |
| 20260903222555 | 98 | 202 | 3.0 | 8.0 | 0.00 | 0.00 | 0.00 | 50 | 1010.7 |
| 20260903222054 | 97 | 252 | 1.0 | 9.0 | 0.00 | 0.00 | 0.00 | 51 | 1010.6 |
| 20260903221604 | 97 | 232 | 2.0 | 9.0 | 0.00 | 0.00 | 0.00 | 51 | 1010.6 |
| 20260903221055 | 98 | 114 | 2.0 | 9.0 | 0.00 | 0.00 | 0.00 | 51 | 1010.7 |
| 20260903220556 | 98 | 205 | 1.0 | 9.0 | 0.00 | 0.00 | 0.00 | 51 | 1010.7 |
| 20260903220124 | 98 | 161 | 3.0 | 12.0 | 0.00 | 0.00 | 0.00 | 51 | 1010.7 |
| 20260903215553 | 98 | 215 | 2.0 | 12.0 | 0.00 | 0.00 | 0.00 | 51 | 1010.7 |
| 20260903215055 | 98 | 192 | 2.0 | 8.0 | 0.00 | 0.00 | 0.00 | 52 | 1010.6 |
| 20260903214604 | 97 | 175 | 2.0 | 8.0 | 0.00 | 0.00 | 0.00 | 52 | 1010.7 |
| 20260903214057 | 97 | 71 | 1.0 | 10.0 | 0.00 | 0.00 | 0.00 | 53 | 1010.9 |
| 20260903213556 | 96 | 34 | 3.0 | 13.0 | 0.00 | 0.00 | 0.00 | 54 | 1010.9 |
| 20260903213106 | 96 | 188 | 4.0 | 13.0 | 0.00 | 0.00 | 0.00 | 54 | 1010.9 |
| 20260903212557 | 96 | 194 | 3.0 | 8.0 | 0.00 | 0.00 | 0.00 | 54 | 1010.8 |
| 20260903212056 | 96 | 84 | 2.0 | 8.0 | 0.00 | 0.00 | 0.00 | 54 | 1010.9 |
| 20260903211603 | 95 | 106 | 1.0 | 8.0 | 0.00 | 0.00 | 0.00 | 56 | 1010.9 |
| 20260903211056 | 95 | 151 | 2.0 | 8.0 | 0.00 | 0.00 | 0.00 | 56 | 1011.0 |
| 20260903210556 | 94 | 272 | 2.0 | 9.0 | 0.00 | 0.00 | 0.00 | 58 | 1011.0 |
| 20260903210110 | 93 | 194 | 1.0 | 10.0 | 0.00 | 0.00 | 0.00 | 58 | 1011.1 |
| 20260903205555 | 93 | 140 | 2.0 | 10.0 | 0.00 | 0.00 | 0.00 | 58 | 1011.1 |
| 20260903205056 | 93 | 148 | 2.0 | 9.0 | 0.00 | 0.00 | 0.00 | 57 | 1011.3 |
| 20260903204603 | 94 | 106 | 2.0 | 9.0 | 0.00 | 0.00 | 0.00 | 57 | 1011.3 |
| 20260903204058 | 95 | 78 | 2.0 | 8.0 | 0.00 | 0.00 | 0.00 | 56 | 1011.3 |
| 20260903203557 | 95 | 188 | 2.0 | 8.0 | 0.00 | 0.00 | 0.00 | 55 | 1011.4 |
| 20260903203133 | 96 | 49 | 1.0 | 8.0 | 0.00 | 0.00 | 0.00 | 54 | 1011.5 |
| 20260903202558 | 97 | 95 | 2.0 | 8.0 | 0.00 | 0.00 | 0.00 | 54 | 1011.5 |
| 20260903202056 | 98 | 78 | 2.0 | 9.0 | 0.00 | 0.00 | 0.00 | 53 | 1011.6 |
| 20260903201606 | 98 | 212 | 3.0 | 9.0 | 0.00 | 0.00 | 0.00 | 53 | 1011.6 |
| 20260903201100 | 98 | 128 | 2.0 | 8.0 | 0.00 | 0.00 | 0.00 | 52 | 1011.7 |
| 20260903200556 | 98 | 185 | 3.0 | 9.0 | 0.00 | 0.00 | 0.00 | 53 | 1011.6 |
| 20260903200108 | 97 | 238 | 2.0 | 10.0 | 0.00 | 0.00 | 0.00 | 55 | 1011.7 |
| 20260903195556 | 96 | 130 | 3.0 | 10.0 | 0.00 | 0.00 | 0.00 | 57 | 1011.7 |
| 20260903195057 | 95 | 147 | 2.0 | 8.0 | 0.00 | 0.00 | 0.00 | 59 | 1011.7 |
| 20260903194602 | 94 | 117 | 2.0 | 7.0 | 0.00 | 0.00 | 0.00 | 57 | 1011.7 |
| 20260903194056 | 95 | 116 | 2.0 | 7.0 | 0.00 | 0.00 | 0.00 | 56 | 1011.9 |
| 20260903193556 | 96 | 155 | 2.0 | 7.0 | 0.00 | 0.00 | 0.00 | 56 | 1012.0 |
| 20260903193106 | 96 | 80 | 2.0 | 7.0 | 0.00 | 0.00 | 0.00 | 56 | 1012.1 |
| 20260903192557 | 95 | 32 | 2.0 | 6.0 | 0.00 | 0.00 | 0.00 | 58 | 1012.2 |
| 20260903192056 | 95 | 267 | 1.0 | 11.0 | 0.00 | 0.00 | 0.00 | 57 | 1012.2 |
| 20260903191605 | 95 | 123 | 2.0 | 11.0 | 0.00 | 0.00 | 0.00 | 56 | 1012.2 |
| 20260903191056 | 95 | 201 | 2.0 | 7.0 | 0.00 | 0.00 | 0.00 | 56 | 1012.3 |
| 20260903190559 | 95 | 153 | 1.0 | 7.0 | 0.00 | 0.00 | 0.00 | 56 | 1012.4 |
| 20260903190104 | 95 | 217 | 1.0 | 7.0 | 0.00 | 0.00 | 0.00 | 58 | 1012.4 |
| 20260903185556 | 94 | 127 | 1.0 | 7.0 | 0.00 | 0.00 | 0.00 | 56 | 1012.5 |
| 20260903185057 | 95 | 60 | 2.0 | 7.0 | 0.00 | 0.00 | 0.00 | 56 | 1012.7 |
| 20260903184603 | 95 | 208 | 1.0 | 8.0 | 0.00 | 0.00 | 0.00 | 55 | 1012.8 |
| 20260903184100 | 95 | 88 | 1.0 | 9.0 | 0.00 | 0.00 | 0.00 | 56 | 1012.9 |
| 20260903183600 | 95 | 210 | 2.0 | 10.0 | 0.00 | 0.00 | 0.00 | 58 | 1013.0 |
| 20260903183107 | 94 | 187 | 2.0 | 10.0 | 0.00 | 0.00 | 0.00 | 57 | 1012.9 |
| 20260903182559 | 94 | 136 | 2.0 | 10.0 | 0.00 | 0.00 | 0.00 | 58 | 1012.9 |
| 20260903182056 | 93 | 131 | 3.0 | 10.0 | 0.00 | 0.00 | 0.00 | 59 | 1013.0 |
| 20260903181601 | 94 | 169 | 2.0 | 6.0 | 0.00 | 0.00 | 0.00 | 58 | 1013.1 |
| 20260903181059 | 94 | 198 | 1.0 | 6.0 | 0.00 | 0.00 | 0.00 | 57 | 1013.2 |
| 20260903180558 | 94 | 154 | 2.0 | 6.0 | 0.00 | 0.00 | 0.00 | 58 | 1013.3 |
| 20260903180106 | 94 | 84 | 2.0 | 9.0 | 0.00 | 0.00 | 0.00 | 59 | 1013.3 |
| 20260903175556 | 94 | 201 | 3.0 | 9.0 | 0.00 | 0.00 | 0.00 | 58 | 1013.4 |
| 20260903175056 | 94 | 92 | 2.0 | 9.0 | 0.00 | 0.00 | 0.00 | 59 | 1013.4 |
| 20260903174601 | 93 | 208 | 2.0 | 9.0 | 0.00 | 0.00 | 0.00 | 60 | 1013.5 |
| 20260903174056 | 93 | 180 | 2.0 | 8.0 | 0.00 | 0.00 | 0.00 | 60 | 1013.4 |
| 20260903173556 | 93 | 114 | 2.0 | 9.0 | 0.00 | 0.00 | 0.00 | 60 | 1013.6 |
| 20260903173103 | 93 | 136 | 2.0 | 9.0 | 0.00 | 0.00 | 0.00 | 60 | 1013.7 |
| 20260903172556 | 93 | 91 | 3.0 | 7.0 | 0.00 | 0.00 | 0.00 | 59 | 1013.8 |
| 20260903172056 | 93 | 212 | 2.0 | 6.0 | 0.00 | 0.00 | 0.00 | 60 | 1013.7 |
| 20260903171616 | 93 | 58 | 1.0 | 7.0 | 0.00 | 0.00 | 0.00 | 60 | 1013.7 |
| 20260903171100 | 93 | 216 | 1.0 | 7.0 | 0.00 | 0.00 | 0.00 | 61 | 1013.8 |
| 20260903170556 | 93 | 77 | 2.0 | 10.0 | 0.00 | 0.00 | 0.00 | 60 | 1013.9 |
| 20260903170104 | 93 | 332 | 2.0 | 10.0 | 0.00 | 0.00 | 0.00 | 62 | 1013.8 |
| 20260903165557 | 92 | 204 | 1.0 | 7.0 | 0.00 | 0.00 | 0.00 | 63 | 1013.7 |
| 20260903165059 | 92 | 296 | 1.0 | 7.0 | 0.00 | 0.00 | 0.00 | 62 | 1013.8 |
| 20260903164637 | 91 | 192 | 2.0 | 6.0 | 0.00 | 0.00 | 0.00 | 65 | 1013.8 |
| 20260903164056 | 90 | 204 | 1.0 | 5.0 | 0.00 | 0.00 | 0.00 | 66 | 1013.8 |
| 20260903163556 | 90 | 129 | 1.0 | 10.0 | 0.00 | 0.00 | 0.00 | 64 | 1013.9 |
| 20260903163103 | 89 | 202 | 2.0 | 10.0 | 0.00 | 0.00 | 0.00 | 66 | 1013.8 |
| 20260903162556 | 89 | 196 | 1.0 | 7.0 | 0.00 | 0.00 | 0.00 | 66 | 1014.0 |
| 20260903162056 | 89 | 189 | 1.0 | 7.0 | 0.00 | 0.00 | 0.00 | 65 | 1014.0 |
| 20260903161602 | 89 | 191 | 2.0 | 7.0 | 0.00 | 0.00 | 0.00 | 65 | 1014.0 |
| 20260903161057 | 89 | 155 | 1.0 | 5.0 | 0.00 | 0.00 | 0.00 | 66 | 1013.9 |
| 20260903160556 | 89 | 229 | 1.0 | 6.0 | 0.00 | 0.00 | 0.00 | 67 | 1013.9 |
| 20260903155600 | 88 | 126 | 1.0 | 6.0 | 0.00 | 0.00 | 0.00 | 69 | 1013.8 |
| 20260903155056 | 87 | 134 | 0.0 | 6.0 | 0.00 | 0.00 | 0.00 | 68 | 1013.9 |
| 20260903154602 | 87 | 0 | 1.0 | 7.0 | 0.00 | 0.00 | 0.00 | 69 | 1014.0 |
| 20260903154118 | 87 | 101 | 1.0 | 7.0 | 0.00 | 0.00 | 0.00 | 69 | 1013.9 |
| 20260903153556 | 86 | 325 | 1.0 | 5.0 | 0.00 | 0.00 | 0.00 | 69 | 1014.0 |
| 20260903153126 | 86 | 100 | 2.0 | 5.0 | 0.00 | 0.00 | 0.00 | 71 | 1013.8 |
| 20260903152556 | 86 | 193 | 1.0 | 6.0 | 0.00 | 0.00 | 0.00 | 72 | 1013.8 |
| 20260903152059 | 85 | 90 | 1.0 | 6.0 | 0.00 | 0.00 | 0.00 | 73 | 1013.7 |
| 20260903151613 | 84 | 164 | 1.0 | 7.0 | 0.00 | 0.00 | 0.00 | 73 | 1013.8 |
| 20260903151057 | 84 | 209 | 1.0 | 7.0 | 0.00 | 0.00 | 0.00 | 73 | 1013.8 |
| 20260903150557 | 84 | 150 | 1.0 | 7.0 | 0.00 | 0.00 | 0.00 | 72 | 1013.8 |
| 20260903150104 | 84 | 63 | 1.0 | 7.0 | 0.00 | 0.00 | 0.00 | 72 | 1013.8 |
| 20260903145558 | 84 | 222 | 2.0 | 6.0 | 0.00 | 0.00 | 0.00 | 73 | 1013.9 |
| 20260903145100 | 84 | 107 | 1.0 | 6.0 | 0.00 | 0.00 | 0.00 | 75 | 1014.0 |
| 20260903144613 | 83 | 132 | 2.0 | 6.0 | 0.00 | 0.00 | 0.00 | 75 | 1014.1 |
| 20260903144056 | 83 | 142 | 1.0 | 6.0 | 0.00 | 0.00 | 0.00 | 76 | 1014.0 |
| 20260903143556 | 82 | 215 | 1.0 | 6.0 | 0.00 | 0.00 | 0.00 | 76 | 1014.1 |
| 20260903143114 | 82 | 139 | 2.0 | 6.0 | 0.00 | 0.00 | 0.00 | 76 | 1014.1 |
| 20260903142558 | 82 | 129 | 1.0 | 5.0 | 0.00 | 0.00 | 0.00 | 77 | 1014.1 |
| 20260903142056 | 81 | 0 | 2.0 | 7.0 | 0.00 | 0.00 | 0.00 | 77 | 1014.0 |
| 20260903141606 | 81 | 40 | 1.0 | 7.0 | 0.00 | 0.00 | 0.00 | 79 | 1013.9 |
| 20260903141057 | 81 | 87 | 1.0 | 4.0 | 0.00 | 0.00 | 0.00 | 80 | 1013.8 |
| 20260903140557 | 80 | 135 | 1.0 | 4.0 | 0.00 | 0.00 | 0.00 | 81 | 1013.8 |
| 20260903135556 | 80 | 164 | 1.0 | 6.0 | 0.00 | 0.00 | 0.00 | 83 | 1014.0 |
| 20260903135056 | 79 | 161 | 0.0 | 4.0 | 0.00 | 0.00 | 0.00 | 85 | 1013.9 |
| 20260903134620 | 79 | 0 | 0.0 | 4.0 | 0.00 | 0.00 | 0.00 | 86 | 1013.8 |
| 20260903134056 | 79 | 181 | 1.0 | 4.0 | 0.00 | 0.00 | 0.00 | 86 | 1013.8 |
| 20260903133556 | 78 | 0 | 0.0 | 3.0 | 0.00 | 0.00 | 0.00 | 87 | 1013.8 |
| 20260903133108 | 77 | 0 | 0.0 | 3.0 | 0.00 | 0.00 | 0.00 | 86 | 1013.8 |
| 20260903132556 | 77 | 0 | 1.0 | 4.0 | 0.00 | 0.00 | 0.00 | 87 | 1013.9 |
| 20260903132059 | 76 | 155 | 1.0 | 4.0 | 0.00 | 0.00 | 0.00 | 87 | 1013.9 |
| 20260903131605 | 76 | 172 | 0.0 | 3.0 | 0.00 | 0.00 | 0.00 | 87 | 1013.9 |
| 20260903131054 | 76 | 0 | 0.0 | 1.0 | 0.00 | 0.00 | 0.00 | 87 | 1013.9 |
| 20260903130603 | 75 | 0 | 0.0 | 0.0 | 0.00 | 0.00 | 0.00 | 87 | 1013.9 |
| 20260903130111 | 75 | 0 | 0.0 | 1.0 | 0.00 | 0.00 | 0.00 | 87 | 1014.0 |
| 20260903125556 | 75 | 0 | 0.0 | 3.0 | 0.00 | 0.00 | 0.00 | 87 | 1014.0 |
| 20260903125056 | 75 | 0 | 0.0 | 3.0 | 0.00 | 0.00 | 0.00 | 87 | 1013.9 |
| 20260903124619 | 75 | 175 | 0.0 | 2.0 | 0.00 | 0.00 | 0.00 | 87 | 1013.9 |
| 20260903124057 | 75 | 194 | 0.0 | 2.0 | 0.00 | 0.00 | 0.00 | 87 | 1013.9 |
| 20260903123709 | 75 | 0 | 0.0 | 1.0 | 0.00 | 0.00 | 0.00 | 87 | 1013.7 |
| 20260903123126 | 74 | 0 | 0.0 | 1.0 | 0.00 | 0.00 | 0.00 | 87 | 1013.6 |
| 20260903120554 | 75 | 0 | 0.0 | 1.0 | 0.00 | 0.00 | 0.00 | 87 | 1013.5 |
| 20260903120106 | 75 | 0 | 0.0 | 3.0 | 0.00 | 0.00 | 0.00 | 87 | 1013.4 |
| 20260903115555 | 75 | 0 | 0.0 | 3.0 | 0.00 | 0.00 | 0.00 | 87 | 1013.4 |
| 20260903115055 | 75 | 0 | 0.0 | 2.0 | 0.00 | 0.00 | 0.00 | 87 | 1013.3 |
| 20260903114604 | 75 | 0 | 0.0 | 1.0 | 0.00 | 0.00 | 0.00 | 87 | 1013.3 |
| 20260903114054 | 75 | 0 | 0.0 | 0.0 | 0.00 | 0.00 | 0.00 | 87 | 1013.3 |
| 20260903113558 | 75 | 0 | 0.0 | 0.0 | 0.00 | 0.00 | 0.00 | 87 | 1013.2 |
| 20260903113144 | 75 | 0 | 0.0 | 0.0 | 0.00 | 0.00 | 0.00 | 87 | 1013.2 |
| 20260903112555 | 75 | 0 | 0.0 | 2.0 | 0.00 | 0.00 | 0.00 | 87 | 1013.2 |
| 20260903112055 | 75 | 0 | 0.0 | 2.0 | 0.00 | 0.00 | 0.00 | 87 | 1013.1 |
| 20260903111604 | 75 | 0 | 0.0 | 1.0 | 0.00 | 0.00 | 0.00 | 87 | 1013.1 |
| 20260903111054 | 75 | 0 | 0.0 | 1.0 | 0.00 | 0.00 | 0.00 | 87 | 1013.3 |
| 20260903110555 | 75 | 0 | 0.0 | 1.0 | 0.00 | 0.00 | 0.00 | 87 | 1013.4 |
| 20260903110109 | 75 | 194 | 0.0 | 3.0 | 0.00 | 0.00 | 0.00 | 88 | 1013.3 |
| 20260903105555 | 75 | 0 | 0.0 | 3.0 | 0.00 | 0.00 | 0.00 | 88 | 1013.2 |
| 20260903105054 | 75 | 194 | 0.0 | 5.0 | 0.00 | 0.00 | 0.00 | 88 | 1013.2 |
| 20260903104609 | 75 | 0 | 0.0 | 5.0 | 0.00 | 0.00 | 0.00 | 88 | 1013.2 |
| 20260903104053 | 75 | 194 | 0.0 | 4.0 | 0.00 | 0.00 | 0.00 | 88 | 1013.2 |
| 20260903103554 | 75 | 0 | 0.0 | 2.0 | 0.00 | 0.00 | 0.00 | 88 | 1013.2 |
| 20260903103103 | 75 | 0 | 0.0 | 3.0 | 0.00 | 0.00 | 0.00 | 88 | 1013.3 |
| 20260903102557 | 75 | 126 | 0.0 | 3.0 | 0.00 | 0.00 | 0.00 | 88 | 1013.4 |
| 20260903102056 | 75 | 125 | 0.0 | 3.0 | 0.00 | 0.00 | 0.00 | 87 | 1013.3 |
| 20260903101603 | 75 | 0 | 0.0 | 2.0 | 0.00 | 0.00 | 0.00 | 87 | 1013.2 |
| 20260903101056 | 75 | 124 | 0.0 | 2.0 | 0.00 | 0.00 | 0.00 | 87 | 1013.3 |
| 20260903100557 | 75 | 0 | 0.0 | 2.0 | 0.00 | 0.00 | 0.00 | 87 | 1013.3 |
| 20260903100103 | 75 | 0 | 0.0 | 2.0 | 0.00 | 0.00 | 0.00 | 87 | 1013.3 |
| 20260903095556 | 75 | 0 | 0.0 | 1.0 | 0.00 | 0.00 | 0.00 | 87 | 1013.3 |
| 20260903095056 | 75 | 0 | 0.0 | 0.0 | 0.00 | 0.00 | 0.00 | 87 | 1013.2 |
| 20260903094601 | 75 | 0 | 0.0 | 1.0 | 0.00 | 0.00 | 0.00 | 87 | 1013.2 |
| 20260903094057 | 75 | 0 | 0.0 | 1.0 | 0.00 | 0.00 | 0.00 | 87 | 1013.2 |
| 20260903093558 | 75 | 0 | 0.0 | 3.0 | 0.00 | 0.00 | 0.00 | 86 | 1013.2 |
| 20260903093107 | 75 | 0 | 0.0 | 3.0 | 0.00 | 0.00 | 0.00 | 86 | 1013.3 |
| 20260903092556 | 75 | 0 | 0.0 | 3.0 | 0.00 | 0.00 | 0.00 | 86 | 1013.2 |
| 20260903092056 | 75 | 124 | 0.0 | 2.0 | 0.00 | 0.00 | 0.00 | 85 | 1013.0 |
| 20260903091611 | 75 | 124 | 0.0 | 2.0 | 0.00 | 0.00 | 0.00 | 85 | 1013.2 |
| 20260903091056 | 76 | 0 | 0.0 | 2.0 | 0.00 | 0.00 | 0.00 | 84 | 1013.2 |
| 20260903090556 | 76 | 0 | 0.0 | 2.0 | 0.00 | 0.00 | 0.00 | 84 | 1013.2 |
| 20260903090101 | 76 | 0 | 0.0 | 2.0 | 0.00 | 0.00 | 0.00 | 84 | 1013.2 |
| 20260903085556 | 76 | 0 | 0.0 | 2.0 | 0.00 | 0.00 | 0.00 | 83 | 1013.1 |
| 20260903085056 | 77 | 0 | 0.0 | 2.0 | 0.00 | 0.00 | 0.00 | 83 | 1013.1 |
| 20260903084607 | 77 | 0 | 0.0 | 2.0 | 0.00 | 0.00 | 0.00 | 82 | 1013.0 |
| 20260903084057 | 77 | 121 | 0.0 | 2.0 | 0.00 | 0.00 | 0.00 | 82 | 1013.0 |
| 20260903083557 | 78 | 0 | 0.0 | 2.0 | 0.00 | 0.00 | 0.00 | 81 | 1013.0 |
| 20260903083059 | 78 | 0 | 0.0 | 2.0 | 0.00 | 0.00 | 0.00 | 81 | 1013.0 |
| 20260903082556 | 79 | 121 | 0.0 | 2.0 | 0.00 | 0.00 | 0.00 | 81 | 1013.0 |
| 20260903082056 | 79 | 0 | 0.0 | 2.0 | 0.00 | 0.00 | 0.00 | 79 | 1013.2 |
| 20260903081603 | 79 | 0 | 0.0 | 2.0 | 0.00 | 0.00 | 0.00 | 77 | 1013.4 |
| 20260903081055 | 79 | 0 | 0.0 | 1.0 | 0.00 | 0.00 | 0.00 | 76 | 1013.3 |
| 20260903080557 | 79 | 0 | 0.0 | 2.0 | 0.00 | 0.00 | 0.00 | 76 | 1013.3 |
| 20260903080106 | 79 | 0 | 0.0 | 2.0 | 0.00 | 0.00 | 0.00 | 75 | 1013.4 |
| 20260903075556 | 79 | 0 | 0.0 | 2.0 | 0.00 | 0.00 | 0.00 | 75 | 1013.3 |
| 20260903075056 | 79 | 0 | 0.0 | 1.0 | 0.00 | 0.00 | 0.00 | 75 | 1013.2 |
| 20260903074601 | 79 | 0 | 0.0 | 1.0 | 0.00 | 0.00 | 0.00 | 74 | 1013.2 |
| 20260903074056 | 79 | 0 | 0.0 | 1.0 | 0.00 | 0.00 | 0.00 | 74 | 1013.2 |
| 20260903073556 | 80 | 0 | 0.0 | 1.0 | 0.00 | 0.00 | 0.00 | 74 | 1013.2 |
| 20260903073104 | 80 | 127 | 0.0 | 2.0 | 0.00 | 0.00 | 0.00 | 73 | 1013.2 |
| 20260903072554 | 80 | 0 | 0.0 | 2.0 | 0.00 | 0.00 | 0.00 | 73 | 1013.2 |
| 20260903072055 | 80 | 0 | 0.0 | 2.0 | 0.00 | 0.00 | 0.00 | 73 | 1013.2 |
| 20260903071613 | 80 | 0 | 0.0 | 2.0 | 0.00 | 0.00 | 0.00 | 72 | 1013.3 |
| 20260903071054 | 80 | 127 | 0.0 | 2.0 | 0.00 | 0.00 | 0.00 | 72 | 1013.3 |
| 20260903070554 | 81 | 0 | 0.0 | 2.0 | 0.00 | 0.00 | 0.00 | 72 | 1013.5 |
| 20260903070103 | 81 | 0 | 0.0 | 2.0 | 0.00 | 0.00 | 0.00 | 72 | 1013.4 |
| 20260903065557 | 81 | 0 | 0.0 | 3.0 | 0.00 | 0.00 | 0.00 | 72 | 1013.4 |
| 20260903065054 | 81 | 0 | 0.0 | 4.0 | 0.00 | 0.00 | 0.00 | 72 | 1013.5 |
| 20260903064601 | 81 | 100 | 1.0 | 4.0 | 0.00 | 0.00 | 0.00 | 72 | 1013.5 |
| 20260903064054 | 81 | 0 | 0.0 | 3.0 | 0.00 | 0.00 | 0.00 | 71 | 1013.5 |
| 20260903063554 | 81 | 0 | 0.0 | 6.0 | 0.00 | 0.00 | 0.00 | 71 | 1013.5 |
| 20260903063103 | 82 | 93 | 1.0 | 6.0 | 0.00 | 0.00 | 0.00 | 71 | 1013.6 |
| 20260903062555 | 82 | 0 | 1.0 | 8.0 | 0.00 | 0.00 | 0.00 | 70 | 1013.6 |
| 20260903062057 | 82 | 49 | 2.0 | 8.0 | 0.00 | 0.00 | 0.00 | 70 | 1013.6 |
| 20260903061607 | 82 | 124 | 1.0 | 6.0 | 0.00 | 0.00 | 0.00 | 69 | 1013.7 |
| 20260903061054 | 82 | 97 | 1.0 | 7.0 | 0.00 | 0.00 | 0.00 | 69 | 1013.8 |
| 20260903060557 | 83 | 80 | 1.0 | 7.0 | 0.00 | 0.00 | 0.00 | 68 | 1013.8 |
| 20260903060111 | 83 | 105 | 2.0 | 7.0 | 0.00 | 0.00 | 0.00 | 68 | 1013.7 |
| 20260903055555 | 83 | 107 | 0.0 | 7.0 | 0.00 | 0.00 | 0.00 | 67 | 1013.7 |
| 20260903055054 | 83 | 111 | 1.0 | 7.0 | 0.00 | 0.00 | 0.00 | 67 | 1013.7 |
| 20260903054600 | 83 | 51 | 1.0 | 11.0 | 0.00 | 0.00 | 0.00 | 66 | 1013.8 |
| 20260903054054 | 83 | 98 | 3.0 | 11.0 | 0.00 | 0.00 | 0.00 | 66 | 1013.8 |
| 20260903053554 | 83 | 86 | 2.0 | 7.0 | 0.00 | 0.00 | 0.00 | 66 | 1013.8 |
| 20260903053106 | 84 | 92 | 2.0 | 8.0 | 0.00 | 0.00 | 0.00 | 66 | 1013.7 |
| 20260903052558 | 84 | 101 | 2.0 | 8.0 | 0.00 | 0.00 | 0.00 | 65 | 1013.7 |
| 20260903052055 | 84 | 92 | 1.0 | 9.0 | 0.00 | 0.00 | 0.00 | 64 | 1013.7 |
| 20260903051615 | 84 | 62 | 2.0 | 9.0 | 0.00 | 0.00 | 0.00 | 64 | 1013.6 |
| 20260903051055 | 84 | 85 | 3.0 | 9.0 | 0.00 | 0.00 | 0.00 | 64 | 1013.6 |
| 20260903050554 | 84 | 96 | 2.0 | 9.0 | 0.00 | 0.00 | 0.00 | 64 | 1013.7 |
| 20260903050108 | 84 | 81 | 1.0 | 8.0 | 0.00 | 0.00 | 0.00 | 63 | 1013.7 |
| 20260903045554 | 85 | 104 | 1.0 | 7.0 | 0.00 | 0.00 | 0.00 | 63 | 1013.7 |
| 20260903045054 | 85 | 97 | 2.0 | 6.0 | 0.00 | 0.00 | 0.00 | 63 | 1013.6 |
| 20260903044604 | 85 | 67 | 0.0 | 5.0 | 0.00 | 0.00 | 0.00 | 62 | 1013.6 |